Location: Camp Crooked Creek
(37.9149°N, 85.6607°W)
Time: 17:18:50
(UTC-04:00)

Daily predictions for brighter satellites

Satellite Brightness Start Highest point End
(mag) Time Altitude Azimuth Time Altitude Azimuth Time Altitude Azimuth
ERBS 2.5 21:01:04 10° SSW 21:04:25 50° SE 21:07:49 10° NE
Envisat 3.5 21:03:40 10° SE 21:08:25 43° ENE 21:13:12 10° N
Resurs 1-3 3.7 21:04:19 10° SSE 21:08:37 58° ENE 21:12:56 10° N
Cosmos 2227 Rocket 3.7 21:03:29 10° NW 21:08:38 37° WSW 21:13:47 10° S
Cosmos 1980 Rocket 2.2 21:08:29 10° SSW 21:14:06 84° ESE 21:19:43 10° NNE
Cosmos 1092 Rocket 4.5 21:08:28 10° SSW 21:14:33 66° W 21:20:42 10° N
Cosmos 2056 Rocket 4.1 21:09:33 10° SSW 21:14:37 63° WNW 21:19:47 10° NNE
Atlas Centaur 2 3.3 21:07:57 10° WSW 21:15:38 45° S 21:21:48 12° ESE
CZ-2D R/B 3.3 21:11:56 10° SSE 21:15:48 89° SW 21:19:42 10° NNW
USA 267 4.3 21:16:34 10° SSE 21:22:41 42° SW 21:28:50 10° WNW
Cosmos 1633 2.4 21:19:26 10° S 21:23:00 74° E 21:26:38 10° N
YAOGAN 6 3.9 21:20:50 14° ESE 21:23:03 23° ENE 21:25:53 10° NNE
Cosmos 44 3.7 21:22:41 10° NNW 21:26:52 41° NE 21:30:11 16° ESE
Centaur D AC-29 4.3 21:16:14 10° SSW 21:28:22 16° S 21:33:33 10° SSE
S3M 4.3 21:23:05 10° N 21:29:06 47° E 21:35:10 10° SSE
Cosmos 1697 Rocket 4.2 21:25:21 10° SW 21:30:37 41° WNW 21:35:57 10° N
Cosmos 1553 Rocket 4.1 21:26:50 10° N 21:32:53 55° E 21:38:49 10° SSE
Resurs 01 Rocket 2.1 21:30:18 10° S 21:34:42 64° WSW 21:39:09 10° NNW
Cosmos 1452 Rocket 3.5 21:33:18 10° SSW 21:38:35 84° ESE 21:43:54 10° NNE
Cosmos 2266 Rocket 4.5 21:33:37 10° SSE 21:39:03 36° E 21:44:28 10° NNE
Meteor 2-11 Rocket 4.4 21:33:30 10° N 21:39:36 78° E 21:45:39 10° S
Cosmos 839 Rocket 4.0 21:34:09 10° SSW 21:40:31 87° ESE 21:46:45 10° NNE
Okean 1 Rocket 4.2 21:41:27 21° ESE 21:42:33 23° E 21:45:59 10° NE
GPS 2-05 Rocket1 2.9 21:39:57 10° WSW 21:43:12 50° S 21:44:35 28° ESE
Cosmos 1420 Rocket 3.9 21:38:45 10° S 21:43:51 64° ESE 21:48:59 10° NNE
Meteor 1-11 Rocket 3.9 21:38:09 10° S 21:43:52 56° E 21:49:30 10° NNE
Cosmos 2227 4.2 21:39:15 10° NNW 21:44:53 72° ENE 21:49:17 17° SSE
ATLAS 2AS CENTAUR R/B 3.5 21:38:31 10° S 21:45:13 36° ESE 21:52:19 10° NE
Cosmos 407 Rocket 4.2 21:43:06 10° NNW 21:48:20 56° WSW 21:53:31 10° S
CZ-4B DEB 3.8 21:48:27 24° ENE 21:48:27 24° ENE 21:50:49 10° NNE
CZ-4B DEB 4.4 21:47:41 18° SSE 21:50:10 80° ENE 21:53:42 10° N
Cosmos 1300 Rocket 3.8 21:48:20 17° SSE 21:51:18 43° E 21:55:24 10° NNE
Tiangong 1 2.5 21:50:42 10° WNW 21:53:09 27° N 21:54:37 17° NE
Cosmos 2151 Rocket 3.5 21:48:56 10° S 21:53:18 89° ESE 21:57:43 10° N
Cosmos 1602 3.9 21:52:04 10° SSW 21:55:53 71° W 21:59:44 10° N
NOSS 2-3 (E) 3.9 21:51:47 10° S 21:56:11 48° ESE 22:01:09 10° NE
CZ-4C R/B 4.1 21:49:47 10° NW 21:56:36 40° WSW 22:03:56 10° S
SJ-11-01 4.3 21:56:27 15° SSE 22:00:24 84° WSW 22:05:06 10° NNW
Cosmos 1939 Rocket 3.0 21:58:27 15° S 22:01:40 71° WSW 22:05:38 10° NNW
DELTA 2 R/B (1) 3.6 21:58:18 10° WNW 22:03:54 78° SSW 22:06:45 30° ESE
Cosmos 1025 Rocket 4.2 22:02:21 10° NNE 22:05:50 24° ENE 22:05:50 24° ENE
USA 186 4.4 22:06:38 10° SW 22:09:13 21° W 22:11:51 10° NW
Helios 1B rocket 2.3 22:05:11 10° NNE 22:09:18 82° ESE 22:12:45 14° S
Cosmos 1536 2.7 22:11:13 25° S 22:13:34 80° E 22:17:39 10° N
Cosmos 44 Rocket 3.6 22:11:48 10° NW 22:16:29 59° WSW 22:18:48 29° S
Meteor 1-23 Rocket 4.3 22:11:02 10° N 22:16:30 55° ENE 22:18:31 36° SE
GENESIS II 4.3 22:13:07 10° NNW 22:16:59 55° ENE 22:17:28 50° E
SAR-Lupe-4 3.6 22:17:09 54° E 22:17:16 54° ENE 22:20:47 10° N
Lacrosse 5 rocket 1.1 22:15:52 10° NW 22:19:35 75° SW 22:20:14 57° SSE
SeaSat 1 4.4 22:15:43 10° N 22:20:02 31° NW 22:24:20 10° WSW
Cosmos 2322 Rocket 2.3 22:15:46 10° SSW 22:21:29 79° WNW 22:27:13 10° NNE
Cosmos 1536 Rocket 3.9 22:19:06 10° NNW 22:23:22 60° W 22:25:43 25° SSW
ARGOS 3.4 22:23:10 39° ESE 22:24:31 48° ENE 22:29:39 10° N
Cosmos 1140 Rocket 4.0 22:21:12 10° NNW 22:26:18 55° WSW 22:29:22 23° S
Cosmos 2263 Rocket 2.3 22:20:47 10° NNW 22:26:25 58° ENE 22:28:02 42° ESE
BREEZE-M DEB (TANK) 3.8 22:25:29 10° W 22:28:38 51° NNW 22:38:01 10° NE
NOSS 2-3 (C) 3.8 22:25:07 10° SW 22:29:45 83° NW 22:35:04 10° NNE
SL-16 R/B 2.5 22:25:08 10° SSW 22:30:45 66° WNW 22:36:25 10° NNE
H-2A R/B 2.7 22:31:59 36° E 22:32:18 36° ENE 22:36:53 10° N
Meteor 1-29 3.5 22:30:01 10° N 22:33:24 56° WNW 22:34:11 43° SW
SAR-Lupe-1 4.2 22:34:46 66° NNE 22:34:46 66° NNE 22:37:57 10° N
SPOT 5 3.2 22:37:07 48° E 22:37:25 49° ENE 22:42:03 10° N
Cosmos 2322 4.1 22:38:31 42° E 22:38:31 42° E 22:43:16 10° NE
Helios 1A 4.2 22:38:36 25° SSW 22:40:29 39° W 22:44:29 10° NNW
Cosmos 1741 Rocket 4.0 22:36:23 10° NNW 22:41:38 78° WSW 22:43:02 50° S
COSMOS 2428 4.5 22:47:38 17° ENE 22:47:38 17° ENE 22:49:19 10° NE
Lacrosse 5 1.7 22:40:31 10° SSW 22:45:33 73° SE 22:50:38 10° NE
ERS-1 Rocket 3.1 22:46:08 48° S 22:47:28 72° WSW 22:52:30 10° NNW
Okean 2 3.9 22:48:54 10° N 22:52:05 51° NNE 22:52:05 51° NNE
Cosmos 1244 Rocket 4.3 22:54:42 58° SSE 22:55:49 71° E 23:01:55 10° NNE
Cosmos 2360 Rocket 2.0 22:55:38 57° S 22:56:50 81° ESE 23:02:29 10° NNE
MetOp-B 4.4 23:01:40 50° SSW 23:02:48 63° WSW 23:08:07 10° NNW
Atlas Centaur 2 3.0 22:57:43 10° WSW 23:04:26 42° SSW 23:04:26 42° SSW
ATLAS 3B R/B 2.9 23:02:22 10° NNW 23:08:54 51° NE 23:09:41 48° ENE
Cosmos 1110 Rocket 4.3 23:15:27 53° WSW 23:16:19 62° WNW 23:21:28 10° NNE
Cosmos 2315 Rocket 4.4 23:12:43 10° NNW 23:18:51 59° W 23:20:28 45° SW
SL-08 R/B 4.4 23:20:22 71° E 23:20:22 71° E 23:26:29 10° NNE
Meteor 1-12 Rocket 4.4 23:28:21 64° NNE 23:28:21 64° NNE 23:33:07 10° N
SPOT 1/Viking Rocket 4.0 23:33:49 59° WNW 23:33:49 59° WNW 23:38:28 10° NNW
Cosmos 1066 Rocket 4.4 23:28:31 10° N 23:32:59 62° N 23:32:59 62° N
Cosmos 1607 4.2 23:28:44 10° NW 23:35:05 60° WSW 23:35:13 60° WSW
ATLAS 2AS CENTAUR R/B 3.7 23:28:29 10° SW 23:35:57 52° NW 23:43:52 10° NNE
Terra 3.0 23:41:15 38° N 23:41:15 38° N 23:44:13 10° N
Cosmos 1745 Rocket 4.1 23:50:35 67° NNW 23:50:35 67° NNW 23:55:53 10° N
H-2A R/B 4.3 23:53:26 21° N 23:53:26 21° N 23:55:00 10° N
